Regional Weather Roundup
Issued by NWS

Home | Current Version | Previous Version | Text Only | Print | Product List | Glossary On
Versions: 1 2 3 4 5 6 7 8 9 10 11 12 13 14 15 16 17 18 19 20 21 22 23 24 25 26 27 28 29 30 31 32 33 34 35 36 37 38 39 40 41 42 43 44 45 46 47 48 49 50
000
ASUS45 KCYS 220210
RWRWY

WYOMING REGIONAL WEATHER ROUNDUP
NATIONAL WEATHER SERVICE CHEYENNE WY
700 PM MST TUE FEB 21 2017

NOTE:  "FAIR" INDICATES FEW OR NO CLOUDS BELOW 12,000 FEET
WITH NO SIGNIFICANT WEATHER AND/OR OBSTRUCTIONS TO VISIBILITY.

WYZ001-220300-
YELLOWSTONE NATIONAL PARK

CITY           SKY/WX    TMP DP  RH WIND       PRES   REMARKS
LK YELLOWSTONE   N/A     25  24  96 CALM      29.87R
W YELLOWSTONE  NOT AVBL

$$
WYZ002>013-054>058-071-098>099-220300-
NORTHERN WYOMING

CITY           SKY/WX    TMP DP  RH WIND       PRES   REMARKS
JACKSON        CLOUDY    30  28  93 S16G26    29.89F WCI  19
CODY           FAIR      41  26  55 SW13G18   29.81R
GREYBULL       FAIR      43  32  65 NW5       29.78R
WORLAND        CLOUDY    43  36  76 SE3       29.79R
SHERIDAN       FAIR      48  30  49 SW25G31   29.71F
BUFFALO        CLOUDY    48  26  42 NW14      29.77R
GILLETTE       CLOUDY    48  36  63 NW7       29.74S
HULETT         FAIR      50  34  53 SW10      29.75R
NEWCASTLE      FAIR      50  30  46 N14       29.78R

$$
WYZ014>020-022>026-101>103-220300-
CENTRAL WYOMING

CITY           SKY/WX    TMP DP  RH WIND       PRES   REMARKS
BIG PINEY      MOCLDY    28  25  88 N20       29.93S WCI  15
PINEDALE       LGT SNOW  30  28  93 NW14      29.97R WCI  20
DUBOIS         LGT SNOW  28  23  80 NW21G28   29.87F WCI  15
LANDER         LGT SNOW  32  32 100 SW6       29.87R FOG     WCI  26
RIVERTON       CLOUDY    38  29  70 NW23G33   29.85R WCI  27
CASPER         FAIR      48  29  47 SW12      29.79S
DOUGLAS        MOCLDY    54  30  40 SW23G29   29.81S

$$
WYZ021-027>030-104>119-220300-
SOUTHERN WYOMING

CITY           SKY/WX    TMP DP  RH WIND       PRES   REMARKS
EVANSTON       LGT SNOW  31  28  89 N21       29.98R FOG     WCI  18
KEMMERER       SNOW      30  28  93 W24G31    29.98R VSB 1/2 WCI  16
FORT BRIDGER   SNOW      32  32 100 NW17G25   30.00R VSB 1/2 WCI  21
ROCK SPRINGS   CLOUDY    38  30  73 W24G30    29.93R WCI  27
DIXON            N/A     43  31  62 SW8G21    29.97F
RAWLINS        FAIR      44  30  57 SW22G36   29.89F
SARATOGA       FAIR      43  28  56 SW20G31   29.93F
LARAMIE        FAIR      39  21  48 SW16      29.93F WCI  30
CHEYENNE       FAIR      49  15  25 W7        29.94F
TORRINGTON     FAIR      57  20  23 SW16      29.82S
PINE BLUFFS    FAIR      50  18  27 W13G24    29.91F

$$



USA.gov is the U.S. government's official web portal to all federal, state and local government web resources and services.